Retour au catalogue

SL-12 DEB

ActifHEO
NORAD 25684·DEBRIS·🇷🇺 Russia

Lancé Dec 24, 1985 depuis Baikonur Cosmodrome

Loading…

Prochains Passages (prochaines 24 heures)

TLE

FraisSource: Space-Track

Époque: Sep 12, 2026, 22:47 UTC

1 25684U 85118X   26255.94944242  .00007460  00000-0  65721-2 0  9996
2 25684  64.6726 246.1486 5221609  28.4924 352.1562  5.10913539505755

Suivez SL-12 DEB en temps réel avec AllMySat

Download on the App Store